Location: Unspecified
(0.0000°N, 0.0000°E)
Time: 18:03:39
(UTC+02:00)

Milstar 3 - Visible Passes

Search period start: 29 August 2014 00:00
Search period end: 08 September 2014 00:00
Orbit: 1102 x 5144 km, 28.2° (Epoch: 21 August)

Date Brightness Start Highest point End Pass type
(mag) Time Alt. Az. Time Alt. Az. Time Alt. Az.
29 Aug 6.2 01:42:56 10° NW 02:24:29 33° ENE 02:35:28 10° E visible
29 Aug 5.0 04:58:17 44° NW 05:09:28 77° NNE 05:23:59 10° ESE visible
29 Aug 4.7 07:40:25 10° W 07:57:09 41° SW 08:06:20 10° SSE visible
29 Aug 6.5 21:41:00 10° WNW 22:00:02 36° N 22:28:28 10° NE visible
30 Aug 6.4 00:36:13 10° NW 01:04:43 38° NNE 01:29:53 10° ENE visible
30 Aug 5.5 03:33:07 10° NW 04:04:20 64° NNE 04:21:42 10° ESE visible
30 Aug 4.7 06:35:48 16° WNW 06:54:29 59° SW 07:05:39 10° SE visible
30 Aug 6.3 20:37:03 10° WNW 20:52:51 39° NNW 21:19:50 10° NE visible
30 Aug 6.5 23:30:07 10° NW 23:55:20 35° N 00:07:25 29° NE visible
31 Aug 5.9 02:26:07 10° NW 03:05:31 45° ENE 03:18:30 10° E visible
31 Aug 4.8 05:39:14 39° WNW 05:51:08 79° SSW 06:04:31 10° SE visible
31 Aug 6.5 22:24:45 10° WNW 22:46:04 33° N 23:08:07 17° NE visible
01 Sep 6.4 01:19:36 10° NW 02:08:45 22° ENE 02:14:08 10° E visible
01 Sep 5.1 04:42:27 69° NW 04:46:50 84° NNE 05:02:51 10° ESE visible
01 Sep 4.9 07:17:11 10° W 07:35:20 39° SW 07:45:18 10° SSE visible
01 Sep 6.4 21:20:12 10° WNW 21:37:46 33° N 22:04:50 10° NE visible
02 Sep 6.4 00:13:40 10° NW 00:41:44 40° NNE 00:42:21 40° NNE visible
02 Sep 5.5 03:08:52 10° NW 03:45:29 63° ENE 04:00:28 10° ESE visible
02 Sep 4.9 06:19:10 29° W 06:32:18 55° SW 06:44:33 10° SE visible
02 Sep 6.3 20:16:28 10° WNW 20:30:51 35° N 20:55:37 10° NE visible
02 Sep 6.5 23:08:20 10° NW 23:32:34 35° N 23:43:15 30° NE visible
03 Sep 6.1 02:02:19 10° NW 02:48:22 34° E 02:57:08 10° E visible
03 Sep 5.0 05:22:02 57° W 05:28:35 74° SSW 05:43:20 10° SE visible
03 Sep 6.5 22:03:37 10° NW 22:23:38 33° N 22:44:14 18° NE visible
04 Sep 6.3 00:56:27 10° NW 01:51:08 13° E 01:52:33 10° E visible
04 Sep 5.2 04:24:46 86° ESE 04:24:46 86° ESE 04:41:33 10° ESE visible
04 Sep 5.1 06:58:25 17° W 07:13:24 37° SW 07:24:14 10° SSE visible
04 Sep 6.4 20:59:31 10° WNW 21:15:41 31° N 21:41:09 10° NE visible
04 Sep 6.3 23:51:15 10° NW 00:18:35 42° NNE 00:18:44 42° NNE visible
05 Sep 5.7 02:44:49 10° NW 03:27:24 50° E 03:39:02 10° ESE visible
05 Sep 5.1 06:01:02 39° W 06:09:56 52° SW 06:23:23 10° SE visible
05 Sep 6.2 19:56:01 10° WNW 20:09:04 31° N 20:31:24 10° NE visible
05 Sep 6.4 22:46:38 10° NW 23:09:46 36° NNE 23:19:50 31° NE visible
06 Sep 6.3 01:38:45 10° NW 02:29:56 25° E 02:35:32 10° ESE visible
06 Sep 5.1 05:03:33 67° WSW 05:05:46 69° SW 05:22:02 10° SE visible
06 Sep 6.4 21:42:33 10° NW 22:01:18 32° N 22:21:00 18° NE visible
07 Sep 6.3 00:33:29 10° NW 00:54:28 45° N 00:54:28 45° N visible
07 Sep 5.4 03:27:39 10° WNW 04:05:59 67° SE 04:20:06 10° ESE visible
07 Sep 5.3 06:39:36 23° WSW 06:51:22 36° SSW 07:03:09 10° SSE visible
07 Sep 6.3 20:38:55 10° NW 20:53:46 29° N 21:17:27 10° ENE visible
07 Sep 6.2 23:28:57 10° NW 23:55:19 43° NNE 23:55:41 43° NNE visible
